Погода в Сантьяго-де-лос-Кабальерос

Доминиканская Республика     19°27′20″N   70°41′48″W
темп.,
°C
ветер,
м/с
пор.,
м/с
влажн.,
%
обл.,
%
осадки,
мм/ч
давл.,
гПа
погр.,
м
7 мая, пт
пт723:00+20вюв410820 0.0 1017331
02:00+19вюв512942 0.0 1016422
05:00+19вюв410962 0.0 1016296
08:00+23вюв510750 0.0 1017583
11:00+30вюв77380 0.0 10161548
14:00+34юв65260 0.0 10132555
17:00+33всв453043 0.0 10122274
20:00+24всв34640 0.0 1015124
8 мая, сб
сб823:00+22вюв49731 0.0 1017356
02:00+20вюв410903 0.0 1016290
05:00+19вюв379789 0.0 1017188
08:00+23юв4676100 0.0 1018389
11:00+30юв6635100 0.0 10171413
14:00+34юв552340 0.0 10142647
17:00+32св763681 0.0 10131389
20:00+22всв2284100 2.5 101731
9 мая, вс
вс923:00+21в348994 1.4 1019111
02:00+20вюв4109447 1.5 1018322
05:00+20вюв499710 0.0 1018275
08:00+22вюв58845 0.0 1019441
11:00+31вюв68420 0.0 10181688
14:00+34юв773030 0.0 10152676
17:00+32всв663649 0.0 10142359
20:00+23в347488 0.9 101867
10 мая, пн
пн1023:00+22вюв3108594 0.1 1019645
02:00+21вюв410925 0.1 1018347
05:00+20вюв410945 0.0 1017291
08:00+23вюв711771 0.0 1018617
11:00+31вюв810453 0.0 10171448
14:00+34вюв993352 0.0 10142587
17:00+31вюв984572 0.1 10141784
20:00+25вюв5973100 0.3 1018562
11 мая, вт
вт1123:00+21вюв51293100 0.3 1019435
02:00+22вюв61285100 0.3 1017504
05:00+21вюв51284100 0.0 1016424
08:00+23вюв51072100 0.0 1018530
11:00+30вюв7104399 0.0 10181307
14:00+32вюв9939100 0.0 10161579
17:00+30вюв8947100 0.0 10151362
20:00+25вюв4861100 0.0 1017325